Vertical_Velocity
-1 -1 -2 -4 -2 3 6 2 1 -0 -3 -1 0 1 -0 -0 -0 -0 0 1 0 0 0 1 1 1 1 2 2 2 2 2 2 2 1 1 1 0 -1 -0 0 0 1 1 1 0 0 0 0 0 -0 -0 -0 -0 -0 -0 -0 -0 -0 -0 0 0 1 1 1 1 0 0 0 0 0 0 -0 -0 -0 -0 0 0 -0 0 -0 -0 0 0 -0 -0 -0 -0 -0 -0 -0 -0 -0 -0 -0 -0 -0 -0 -0 -0 -0 -0 -0
-0 -1 -2 -5 -4 1 9 5 3 1 -1 -1 -0 1 1 0 -0 -0 0 -1 -1 -1 -2 -1 -0 1 2 2 2 2 2 2 2 2 1 1 1 0 -1 -0 0 0 1 1 1 0 0 0 0 0 -0 -0 -0 -0 -0 -0 -0 -0 -0 -0 0 0 1 1 1 1 1 0 0 0 0 0 0 -0 -0 -0 -0 -0 0 0 -0 -0 -0 -0 -0 -0 -0 -0 -0 -0 -0 -0 -0 -0 -0 -0 -0 -0 -0 -0 -0 -0 -0
-0 -0 -1 -4 -4 -1 7 7 5 3 2 0 1 2 2 0 -0 -0 0 -1 -0 -0 -4 -4 -2 1 2 2 2 2 2 2 2 2 1 1 1 0 -0 -0 0 0 0 0 0 0 0 -0 -0 -0 -0 -0 -0 -0 -0 -0 -0 -0 -0 -0 -0 0 1 1 1 1 1 1 1 1 0 0 0 0 -0 -0 -0 -0 -0 -0 -0 -0 -0 -0 -0 -0 -0 -0 -0 -0 -0 -0 -0 -0 -0 -0 -1 -0 -0 -0 -0 -0 -0
0 0 -0 -2 -4 -4 2 6 6 3 1 1 1 2 0 -0 -0 1 1 -1 -2 -2 -3 -5 -2 2 2 2 2 2 2 2 2 2 2 1 1 0 -0 0 0 0 -0 -0 -0 -0 -0 -0 -0 -0 -0 -0 -0 -0 -0 -0 -0 -0 -0 -0 -0 0 1 1 1 1 1 1 1 1 1 1 0 0 0 -0 -0 -0 -0 -0 -0 -0 -0 -0 -0 -0 -0 -0 -0 -0 -0 -0 -0 -0 -1 -1 -1 -1 -0 -0 -0 -0 -0
-0 0 0 -0 -2 -4 -3 3 6 5 2 0 1 2 2 -0 0 1 1 -1 -2 -2 -2 -4 -1 2 2 2 2 1 2 2 2 2 2 2 1 0 0 0 1 1 0 0 -0 -0 -0 -0 -0 -0 -0 -0 -0 -0 -0 -0 -0 -0 -0 -0 0 0 1 1 1 1 1 1 1 1 1 1 0 0 0 -0 -0 -0 0 0 -0 -0 -0 -0 -0 -0 -0 -0 -0 -0 -0 -0 -0 -1 -1 -1 -1 -1 -0 -0 -0 -0 -0
-0 0 1 1 -1 -3 -5 -1 2 4 3 2 2 3 4 2 1 1 2 -1 -2 -1 -0 -3 -1 1 3 2 1 1 2 2 2 2 2 1 1 0 0 1 1 1 1 0 0 0 0 0 0 0 0 -0 -0 -0 -0 -0 -0 -0 -0 0 0 0 1 1 1 1 1 1 1 1 1 1 0 0 0 -0 -0 -0 -0 0 0 0 -0 -0 -0 -0 -0 -0 -0 -0 -1 -1 -1 -1 -1 -1 -1 -0 -0 -0 -0 -0 -0
-0 0 1 1 0 -1 -4 -2 -0 2 2 3 2 2 3 2 1 1 2 -2 -3 -2 -2 -2 -2 -0 4 2 1 1 1 1 2 2 2 1 1 0 0 1 1 1 1 1 1 0 0 1 1 1 1 0 -0 -0 0 0 0 0 -0 0 0 0 1 1 1 1 1 1 1 1 1 0 0 0 0 -0 -0 -0 -0 -0 -0 -0 -0 -0 -0 -0 -0 -0 -0 -0 -1 -1 -1 -1 -1 -1 -1 -0 -0 -0 -0 -0 -0
0 0 1 1 1 1 -1 -2 -1 1 2 3 2 2 1 2 1 1 1 1 -1 -2 -3 -2 -2 -0 3 2 1 1 2 2 2 2 2 1 1 0 0 1 1 1 1 1 1 1 1 1 1 2 1 1 0 0 0 0 0 0 -0 0 0 0 0 1 1 0 1 1 1 1 0 0 0 0 0 0 -0 -0 -0 -0 -0 -0 -0 -0 -0 -0 -0 -0 -0 -0 -0 -1 -1 -1 -1 -1 -1 -0 -0 -0 -0 -0 -0
-0 -0 1 1 1 1 0 -1 -1 0 2 3 3 2 1 1 1 1 0 2 2 0 -1 -2 -1 0 3 2 1 1 2 2 2 2 2 1 0 0 0 1 1 1 1 1 1 1 1 1 1 2 1 1 0 0 0 0 0 0 -0 -0 0 0 0 0 0 0 0 0 1 1 1 0 0 0 0 0 -0 -0 -0 -0 -0 -0 -0 -0 -0 -0 -0 -0 -0 -0 -0 -0 -1 -1 -1 -1 -1 -0 -0 -0 -0 0 0
-0 -1 -0 1 1 0 1 -0 -0 -0 0 1 3 3 1 1 1 1 0 0 1 1 0 -1 -0 1 2 1 1 2 3 2 2 2 2 1 0 0 0 1 1 1 1 1 1 0 0 1 1 1 1 1 1 0 0 0 0 -0 -0 -0 -0 0 0 0 0 -0 -0 0 1 1 1 0 0 0 0 0 0 0 0 0 -0 -0 -0 -0 -0 -0 -0 -0 -0 -0 -0 -0 -1 -1 -1 -1 -0 -0 -0 -0 0 0 0
-0 -1 -1 1 1 1 0 -0 -0 -0 0 1 2 2 2 1 1 1 1 0 -0 -0 1 0 1 1 0 1 2 2 3 2 2 2 2 1 0 0 0 1 1 1 1 1 0 0 0 0 1 1 1 1 1 0 -0 0 0 -0 -0 -0 -0 -0 0 0 -0 -0 -0 -0 0 1 1 1 0 0 0 0 0 0 0 0 0 0 -0 -0 -0 -0 -0 -0 -0 -0 -0 -0 -1 -1 -1 -0 -0 -0 -0 -0 0 0 0
1 -1 -1 0 1 1 -0 -1 -1 -0 1 2 2 3 3 2 2 1 1 1 0 -0 0 0 0 0 1 1 2 2 2 2 2 2 1 1 0 0 0 1 1 2 1 1 0 0 0 0 1 1 1 1 0 0 -0 -0 -0 -0 -0 -0 -0 -0 -0 -0 -0 -0 -0 -0 0 1 1 1 1 0 0 0 0 0 0 0 0 0 0 0 0 0 0 -0 -0 -0 -0 -1 -1 -1 -1 -0 -0 -0 -0 -0 -0 -0 -0
2 0 -1 -0 0 1 0 -1 -2 -1 1 2 3 3 4 4 3 1 -0 0 0 0 1 1 1 1 1 1 1 2 2 2 2 2 1 0 0 0 0 1 1 2 2 1 0 0 0 0 0 1 1 1 0 0 -0 -0 -0 -0 -0 -0 -0 -0 -0 -0 -0 -0 -0 -0 -0 0 1 1 1 1 0 0 0 0 0 0 0 0 0 0 0 0 0 -0 -0 -0 -0 -1 -1 -1 -0 -0 -0 -0 -0 -0 -0 -0 -0
1 1 -0 -0 0 0 0 -1 -2 -1 1 1 2 3 3 3 3 2 -0 -0 -0 -0 0 1 1 2 2 2 1 2 2 2 2 2 1 0 0 0 0 1 1 2 2 1 1 1 0 0 0 0 0 0 0 0 0 0 0 0 -0 -0 -0 -0 -0 -0 -0 -0 -0 -0 -0 -0 0 1 1 1 1 0 0 0 0 0 0 0 0 0 0 0 0 0 -0 -0 -0 -0 -0 -0 -0 -0 -0 -0 -0 -0 -0 -0 -0
2 1 1 0 0 0 0 -1 -2 -1 -0 0 1 2 3 2 2 1 1 -0 -1 -1 -0 0 1 2 2 2 1 2 2 2 2 1 1 1 0 0 0 1 1 2 2 1 1 1 1 1 1 0 0 0 0 0 0 0 0 0 0 0 0 -0 -0 -0 0 0 0 -0 -0 -0 -0 0 0 1 1 1 0 0 0 0 0 0 0 0 0 0 0 0 0 -0 -0 -0 -0 -0 -0 -0 -0 -0 -0 0 0 0 0
4 3 2 2 1 0 0 -1 -1 -1 -1 -0 0 1 2 2 2 1 1 0 -0 -1 -1 -0 0 1 2 2 1 1 2 2 2 1 1 1 0 0 1 1 1 2 2 1 1 1 1 1 1 1 0 0 0 0 0 0 0 0 0 0 0 0 0 0 0 0 0 0 0 -0 -0 0 0 1 1 1 1 1 0 1 1 1 0 0 0 0 0 0 0 0 -0 -0 -0 -0 -0 -0 -0 -0 0 0 0 0 0
4 4 3 3 2 1 0 -1 -1 -1 -1 -0 0 0 2 2 1 1 1 1 0 -0 -0 -0 0 1 1 1 1 1 2 2 2 2 1 1 1 0 1 1 1 2 2 1 1 1 1 1 1 1 1 1 0 0 0 1 1 1 1 1 0 0 -0 -0 0 0 0 0 0 0 -0 -0 0 0 0 1 1 1 1 1 1 1 1 1 1 1 0 0 0 0 -0 -0 -0 -0 -0 -0 -0 -0 0 0 0 0 0
3 3 3 3 2 2 0 -0 -1 -1 -1 -0 -0 0 1 1 1 1 1 1 0 0 0 -0 0 0 0 0 1 2 2 2 2 2 2 1 1 1 1 1 1 2 2 2 1 1 1 1 1 1 1 1 1 1 1 1 1 1 1 1 0 0 -0 -0 -0 0 0 1 0 0 -0 -0 0 0 0 0 0 1 1 1 1 1 1 1 1 1 1 0 0 0 -0 -0 -0 -0 -0 -0 -0 -0 0 0 0 0 0
2 2 3 3 2 2 1 0 -0 -0 -1 -0 -0 -0 -0 0 0 1 1 0 0 0 0 0 0 1 1 1 1 2 1 1 1 2 2 1 1 0 0 1 1 2 2 2 1 1 1 1 1 1 1 1 1 1 1 1 1 1 1 0 0 0 -0 -0 -0 0 0 1 1 0 0 -0 0 0 0 0 0 0 0 1 1 1 1 1 1 1 1 1 0 0 -0 -0 -0 -0 -0 -0 -0 -0 -0 -0 0 0 -0
1 2 2 2 2 2 1 1 0 0 -0 -0 -0 -0 -0 0 0 0 0 0 0 -0 -0 0 1 1 1 1 1 1 -0 0 1 1 1 1 0 0 0 1 1 1 2 2 1 1 1 1 1 1 1 1 1 1 1 1 1 1 1 0 0 0 -0 -0 -0 -0 -0 0 0 0 0 0 0 0 0 0 0 0 0 0 1 1 1 1 1 1 1 1 0 0 -0 -0 -0 -0 -0 -0 -0 -0 -0 -0 -0 -0 -0
1 2 2 2 2 2 2 1 1 1 0 -0 -0 -0 -0 -0 -0 -0 -0 -0 -0 -0 -0 0 1 2 1 1 0 -0 -0 0 1 1 1 1 1 1 0 1 1 1 1 2 1 1 1 1 1 1 1 1 1 1 1 1 1 1 1 0 0 0 -0 -0 -0 -0 -0 -0 -0 -0 -0 -0 0 0 0 0 0 0 0 0 0 0 0 0 0 0 0 0 0 0 -0 -0 -0 -0 -1 -1 -1 -1 -1 -1 -1 -1 -0
1 2 2 2 2 2 2 2 2 1 0 0 0 0 0 -0 -0 -0 -0 -0 -0 -0 1 1 2 1 0 0 -0 -0 -0 0 1 1 1 1 1 1 1 1 1 1 1 1 1 1 1 1 1 1 1 1 1 0 0 1 1 1 1 0 0 0 0 -0 -0 -0 -0 -0 -0 -0 -0 -0 -0 0 0 0 0 0 -0 -0 -0 -0 0 0 0 0 0 0 0 0 -0 -0 -0 -0 -1 -1 -1 -1 -1 -1 -1 -1 -1
1 1 2 2 2 1 2 2 2 1 1 1 1 0 -1 -2 -2 -1 1 0 0 1 2 2 1 1 0 0 -0 -0 -0 0 0 1 1 1 1 1 1 1 1 1 1 1 1 1 1 1 1 1 1 1 0 0 0 0 1 1 1 0 0 0 0 0 -0 -0 -1 -1 -1 -1 -1 -1 -0 -0 0 0 0 -0 -0 -0 -0 -0 -0 -0 -0 -0 -0 -0 -0 -0 -0 -0 -0 -0 -1 -1 -1 -1 -1 -1 -1 -1 -1
1 1 1 1 1 1 1 2 2 1 1 1 2 1 -1 -3 -3 -1 2 2 1 2 2 2 1 0 0 0 0 -0 -0 0 0 1 1 1 1 1 1 1 1 1 1 1 1 1 1 1 1 1 1 1 0 0 0 0 0 1 1 0 0 0 0 0 0 -0 -1 -1 -1 -1 -1 -1 -1 -0 -0 -0 -0 -0 -0 -1 -1 -1 -1 -1 -1 -1 -1 -1 -0 -0 -0 -1 -1 -1 -1 -1 -1 -1 -1 -1 -1 -1 -1
1 1 1 1 1 1 1 1 2 1 1 1 2 2 1 -2 -3 -1 2 2 2 2 2 1 0 0 0 0 0 0 0 0 0 0 1 1 1 1 1 1 1 1 1 1 1 1 1 1 1 1 1 0 0 0 0 0 0 0 0 0 0 0 0 0 0 -0 -1 -1 -1 -1 -1 -1 -1 -1 -1 -1 -1 -1 -1 -1 -1 -1 -1 -1 -1 -1 -1 -1 -1 -1 -1 -1 -1 -1 -1 -1 -1 -1 -1 -1 -1 -1 -1
1 1 1 1 1 1 1 1 1 1 1 1 1 2 2 -1 -2 -1 0 2 2 2 1 1 1 0 0 0 0 0 0 0 0 0 0 1 1 1 1 1 1 1 1 2 2 2 2 1 1 1 1 0 0 0 0 0 0 0 0 0 -0 -0 -0 -0 -0 -0 -1 -1 -1 -1 -1 -1 -1 -1 -1 -1 -1 -1 -1 -1 -1 -1 -1 -1 -1 -1 -1 -1 -1 -1 -1 -1 -1 -1 -1 -1 -1 -1 -1 -1 -1 -1 -0
1 1 1 1 1 1 1 1 1 1 0 1 1 0 1 1 -0 -0 0 1 2 2 1 0 1 1 1 1 0 0 0 0 0 0 0 0 0 0 0 1 1 1 1 2 2 2 2 2 1 1 1 1 0 0 0 0 0 0 0 -0 -0 -0 -0 -0 -1 -1 -1 -0 -1 -1 -1 -1 -1 -1 -2 -2 -2 -2 -2 -1 -1 -1 -1 -1 -1 -1 -1 -1 -1 -1 -1 -1 -1 -1 -1 -1 -1 -1 -1 -1 -1 -0 -0
2 2 1 1 1 1 1 2 2 1 -0 1 1 0 -0 0 1 0 0 1 1 1 0 1 1 1 1 1 1 0 0 0 0 0 0 0 -0 -0 0 0 1 1 1 1 1 1 2 1 1 1 1 1 0 0 0 0 0 0 0 -0 -0 -0 -0 -0 -1 -1 -1 -1 -1 -1 -1 -1 -1 -1 -1 -1 -1 -2 -2 -1 -1 -1 -1 -1 -1 -1 -1 -1 -1 -1 -1 -1 -1 -1 -1 -1 -1 -1 -0 -0 -0 -0 -0
3 3 2 1 1 1 1 2 2 2 -0 -1 0 1 -0 -0 0 0 -0 0 0 -0 0 1 1 1 1 1 1 1 0 0 0 0 0 0 -0 -0 -0 -0 0 0 0 1 1 1 1 1 1 1 1 0 0 0 0 0 0 0 0 -0 -0 -0 -0 -0 -1 -1 -1 -1 -1 -1 -1 -1 -1 -1 -1 -1 -1 -1 -1 -1 -1 -1 -1 -1 -1 -1 -1 -1 -1 -1 -1 -1 -1 -1 -1 -1 -1 -1 -1 -0 -0 -0 -0
4 4 4 1 0 0 1 2 3 3 1 -1 -0 1 -1 -1 -0 -0 -0 0 0 -0 -0 0 0 1 1 1 1 1 0 0 0 0 0 0 -0 -0 -0 -0 -0 -0 0 0 0 0 1 1 0 0 0 0 0 0 0 0 0 0 0 0 -0 -0 -0 -1 -1 -1 -1 -1 -1 -1 -1 -1 -1 -1 -1 -1 -1 -1 -0 -0 -0 -1 -1 -1 -1 -1 -1 -1 -1 -1 -0 -0 -0 -0 -0 -0 -1 -1 -1 -1 -1 -1 -1
4 4 4 2 1 0 1 1 3 4 5 1 -0 -0 0 -0 -0 -0 -0 0 0 0 0 1 1 1 1 1 1 1 0 0 0 0 1 0 0 -0 -0 -0 -0 -0 -0 -0 0 0 0 0 0 0 0 0 0 0 0 0 0 0 0 0 0 -0 -0 -1 -1 -1 -1 -1 -1 -1 -1 -1 -0 -0 -1 -1 -1 -0 -0 -0 -1 -1 -1 -1 -1 -1 -0 -0 -0 -0 -0 -0 -0 -0 -0 -0 -0 -1 -1 -1 -1 -1 -1
4 4 4 3 2 1 0 1 2 3 5 5 3 1 1 0 -0 -0 -0 0 0 0 1 1 1 1 1 1 1 1 0 0 0 1 1 1 0 0 -0 -0 -0 -0 -0 -0 -0 0 0 0 0 0 0 0 0 0 0 0 0 0 0 0 0 -0 -0 -1 -1 -1 -1 -1 -1 -0 -0 -0 -0 -0 -0 -1 -1 -0 -0 -0 -1 -1 -1 -1 -1 -1 -1 -1 -0 -0 -0 -0 0 0 -0 -0 -0 -0 -1 -1 -1 -1 -1
3 3 4 4 3 1 0 1 1 2 3 5 4 3 1 0 0 0 0 0 0 0 0 0 0 1 1 1 1 1 0 0 1 1 1 1 1 0 0 -0 -0 -0 -0 -0 0 0 0 0 1 1 1 1 1 1 0 0 0 0 0 0 0 -0 -0 -1 -1 -1 -1 -1 -1 -1 -0 -0 -0 -0 -0 -0 -1 -1 -1 -1 -1 -1 -1 -0 -0 -1 -0 -0 -1 -1 -1 -0 -0 -0 -0 -0 -0 -0 -0 -0 -0 -0 -0
2 3 3 3 3 2 1 1 1 1 2 3 4 4 2 0 -0 -0 -0 0 0 1 1 1 1 1 1 1 1 1 0 0 1 1 1 1 1 1 0 0 0 -0 -0 -0 0 0 0 1 1 1 1 1 1 0 0 0 0 0 0 0 0 -0 -0 -1 -1 -1 -1 -1 -1 -1 -1 -1 -1 -1 -1 -1 -1 -1 -1 -1 -0 -0 0 0 -0 -0 -0 -1 -1 -1 -1 -1 -1 -1 -1 -1 -1 -0 -0 -0 -0 -0 -0
2 2 3 3 3 2 2 2 1 1 1 2 3 4 3 1 -0 -1 -0 0 0 1 1 1 1 1 1 1 1 1 0 1 1 1 1 1 1 1 1 0 0 0 0 0 0 0 1 1 1 1 1 1 1 0 0 -0 -0 0 0 0 0 -0 -0 -0 -0 -1 -1 -1 -1 -1 -1 -1 -1 -1 -1 -1 -1 -1 -1 -1 -1 -0 0 -0 -0 -0 -0 -1 -1 -1 -1 -1 -1 -1 -1 -1 -1 -1 -0 -0 -0 -0 -0
2 2 3 3 3 3 3 3 2 1 1 1 2 3 3 2 1 -0 -0 0 1 1 1 1 1 1 1 1 1 1 0 1 1 1 1 1 1 1 1 0 0 0 0 0 0 0 1 1 1 1 1 1 0 0 -0 -0 -0 0 0 0 0 0 -0 -0 -0 -0 -0 -1 -1 -1 -1 -1 -2 -2 -2 -2 -1 -1 -1 -1 -0 -0 0 -0 -0 -1 -1 -1 -1 -1 -1 -1 -1 -1 -1 -1 -1 -1 -1 -1 -1 -1 -0
2 3 3 3 3 4 4 3 2 1 1 1 1 2 2 2 1 1 0 0 1 1 1 1 1 1 1 1 1 1 1 1 1 1 1 1 1 1 1 0 0 0 0 0 0 0 1 1 1 0 0 0 0 -0 -0 -0 0 0 1 1 0 0 0 -0 -0 -0 -0 -1 -1 -1 -1 -2 -2 -2 -2 -2 -2 -1 -1 -1 -0 -0 -0 -0 -0 -0 -1 -1 -1 -1 -1 -1 -2 -2 -2 -2 -1 -1 -1 -0 -0 -1 -0
3 3 3 3 4 4 5 3 2 2 1 1 1 1 2 2 2 1 1 1 1 1 1 1 1 1 1 1 1 1 1 1 1 1 1 1 1 1 1 1 0 0 0 0 0 0 0 0 0 0 0 0 -0 -0 -0 0 1 1 1 1 1 1 0 0 -0 -0 -0 -1 -1 -1 -1 -2 -2 -2 -2 -2 -2 -1 -1 -1 -1 -1 -1 -1 -1 -1 -1 -1 -1 -1 -1 -1 -1 -2 -2 -1 -1 -1 -0 -0 -0 -1 -1
3 3 3 4 5 5 5 3 2 1 1 1 1 1 1 1 1 1 1 1 1 1 1 1 1 1 1 1 1 1 1 1 1 1 1 1 1 1 1 1 0 1 1 0 0 0 0 0 0 0 0 -0 -0 0 0 1 1 1 1 1 1 1 0 0 -0 -0 -0 -1 -1 -1 -1 -1 -2 -2 -2 -1 -1 -1 -1 -1 -1 -1 -1 -2 -1 -1 -1 -1 -1 -1 -1 -1 -0 -0 -1 -1 -1 -1 -1 -1 -1 -1 -1
3 3 3 4 5 5 5 3 2 1 1 2 1 1 1 1 1 1 1 1 1 1 1 1 1 1 1 1 1 1 1 1 1 1 1 1 1 1 1 0 0 1 1 0 0 0 0 0 0 0 0 -0 0 0 1 1 1 1 1 1 1 0 0 0 -0 -0 -0 -0 -1 -1 -1 -1 -1 -1 -1 -1 -1 -1 -1 -1 -1 -1 -1 -2 -2 -1 -1 -1 -1 -1 -1 -1 -0 -0 -0 -0 -0 -0 -1 -1 -1 -1 -1
3 3 4 4 4 4 4 3 2 1 2 2 2 1 1 2 2 2 2 1 1 1 1 1 2 2 1 1 1 1 1 1 1 1 1 1 1 0 0 0 0 0 0 0 0 0 0 0 0 0 0 0 0 1 1 1 1 1 1 1 0 0 -0 -0 -0 -0 -0 -0 -0 -1 -1 -1 -1 -1 -1 -1 -1 -1 -1 -1 -1 -1 -1 -1 -1 -1 -1 -1 -1 -1 -1 -1 -1 -1 -0 -0 -0 -0 -0 -0 -1 -0 -1
3 3 3 3 3 3 3 3 2 2 2 2 2 2 2 2 2 2 2 2 1 2 2 2 2 2 2 1 1 1 1 1 1 1 0 0 -0 -0 -0 -0 -0 0 0 0 0 0 1 1 1 1 0 0 0 0 1 1 1 1 0 0 -0 -0 -0 -0 -0 -0 -0 -0 -0 -1 -1 -1 -1 -1 -1 -1 -1 -1 -2 -2 -1 -1 -1 -1 -1 -1 -1 -1 -1 -1 -1 -1 -1 -1 -1 -0 -0 -0 -0 -0 -0 -0 -1
3 3 3 2 2 2 3 3 3 2 2 2 2 2 2 2 2 2 1 1 2 2 2 2 2 2 2 1 1 1 1 1 1 1 0 -0 -1 -1 -1 -0 -0 -0 0 0 0 0 1 1 1 1 0 0 0 0 0 0 0 0 0 -0 -0 -1 -1 -1 -0 -0 -0 -0 -0 -0 -1 -1 -1 -1 -1 -2 -2 -2 -1 -1 -1 -1 -1 -1 -1 -1 -1 -1 -1 -1 -1 -1 -1 -1 -1 -1 -1 -1 -0 -0 -0 -0 -1
2 2 2 2 2 2 3 3 3 3 3 2 2 2 2 2 2 2 1 2 2 2 3 3 3 3 2 2 1 1 1 1 1 0 -0 -1 -1 -1 -1 -0 -0 0 0 0 0 1 1 1 0 0 -0 -0 0 0 1 1 0 0 -0 -0 -0 -1 -1 -0 -0 -0 -0 -0 -0 -0 -0 -1 -1 -1 -2 -2 -2 -1 -1 -1 -1 -1 -1 -1 -1 -1 -1 -1 -1 -0 -0 -0 -0 -1 -1 -1 -1 -1 -1 -1 -1 -1 -1
2 2 1 1 1 2 2 3 4 4 3 3 2 2 2 2 2 2 2 2 2 3 4 4 3 3 2 2 1 1 1 1 0 -0 -1 -1 -1 -1 -0 -0 0 1 1 1 1 0 0 0 -0 -0 -0 0 0 1 1 1 0 -0 -0 -0 -0 -0 -0 -0 -0 -0 -0 -0 -0 -0 -0 -0 -1 -1 -2 -2 -1 -1 -1 -1 -1 -1 -1 -1 -1 -1 -1 -0 -0 -0 -0 -0 -0 -1 -1 -1 -1 -1 -1 -1 -1 -1 -1
1 1 1 1 1 2 2 3 3 4 4 3 2 2 2 2 2 2 2 3 3 4 4 4 3 3 2 2 1 1 1 0 0 -0 -0 -1 -1 -1 -0 0 1 1 1 1 1 0 -0 -0 -0 -0 0 0 1 1 1 0 0 -0 0 -0 -0 -0 0 0 -0 -0 -0 -0 0 0 0 -0 -1 -1 -1 -1 -1 -1 -0 -1 -1 -1 -1 -1 -1 -1 -1 -0 -0 -0 -0 -0 -1 -1 -1 -1 -1 -1 -1 -1 -1 -1 -1
1 0 0 1 1 1 1 2 3 4 4 4 3 3 3 3 3 3 3 3 4 4 4 4 3 2 2 2 2 2 1 1 0 0 -0 -0 -0 -0 0 1 1 2 2 1 1 0 -0 -0 0 0 0 1 1 1 0 0 0 0 0 0 0 0 0 0 -0 -0 -0 -0 0 0 -0 -0 -1 -1 -1 -1 -1 -1 -1 -1 -1 -1 -1 -1 -1 -1 -1 -1 -1 -0 -0 -0 -1 -1 -1 -1 -1 -1 -1 -1 -1 -1 -1
0 -0 -0 -0 0 0 0 1 2 3 4 4 4 4 4 4 4 4 4 3 3 3 3 3 2 2 2 2 2 2 1 1 0 -0 -0 -0 -0 0 0 1 2 2 1 1 0 0 -0 0 0 1 1 0 0 0 -0 0 0 1 1 0 0 0 0 -0 -0 -0 -0 -0 -0 -0 -0 -1 -1 -1 -1 -1 -0 -0 -1 -1 -1 -1 -1 -1 -1 -1 -1 -1 -1 -1 -1 -1 -1 -1 -1 -1 -1 -1 -1 -1 -1 -1 -1
2 -1 -1 -1 -0 -0 0 1 2 3 5 5 5 5 4 4 3 3 2 2 2 2 2 2 2 2 2 2 2 2 1 0 -0 -0 -0 -0 0 0 1 1 1 1 1 1 0 0 0 0 1 1 0 -0 -0 -0 -0 0 1 1 0 0 0 0 0 -0 -0 -1 -0 -0 -0 -0 -1 -1 -1 -0 -0 -0 -0 -0 -0 -1 -1 -1 -1 -1 -1 -1 -1 -1 -1 -1 -1 -1 -1 -1 -1 -1 -0 -1 -1 -1 -1 -1 -1
4 -0 -2 -1 -1 -0 -0 0 1 3 5 5 5 4 3 2 2 1 1 1 1 1 1 2 2 2 3 2 2 1 0 -0 -0 0 0 -0 0 1 1 1 1 1 1 1 1 1 1 0 0 0 -0 -0 -0 -0 0 0 0 0 0 0 0 0 0 -0 -0 -0 -0 -0 -0 -0 -0 -0 -0 -0 -0 -0 -0 -0 -0 -0 -1 -0 -0 -1 -1 -1 -1 -1 -1 -1 -1 -1 -1 -1 -1 -1 -0 -0 -0 -1 -0 -0 -0
6 1 -2 -1 -1 -0 -0 -0 1 2 4 4 4 3 2 2 1 1 1 1 1 1 1 2 3 3 3 2 2 1 0 0 0 0 -0 0 1 1 1 1 1 1 1 1 1 1 0 0 0 -0 -0 -0 -0 -0 0 0 0 -0 -0 0 0 0 0 -0 -0 0 0 0 0 -0 -0 -0 0 0 -0 -0 -0 -0 -0 -0 -1 -1 -1 -1 -1 -1 -1 -1 -1 -1 -1 -1 -1 -1 -1 -1 -0 -0 -0 -0 -0 -0 -0
6 2 -1 -1 -1 -1 -1 -1 -0 1 3 4 4 3 2 2 2 1 1 2 2 2 2 2 3 3 3 2 2 1 1 1 1 0 -0 1 2 1 0 0 0 1 1 1 1 0 0 -0 -0 -0 -0 -0 -0 -0 -0 -0 -0 0 0 1 1 1 0 0 0 0 1 1 0 0 0 0 -0 -0 -0 -0 -0 -0 -0 -0 -0 -1 -1 -1 -1 -1 -1 -1 -1 -1 -1 -1 -1 -1 -1 -1 -0 -0 -0 -0 -0 -0 -0
6 3 -1 -1 -1 -1 -1 -1 -0 1 2 3 3 3 3 2 2 2 2 2 2 2 2 2 2 2 2 2 2 2 1 1 1 1 1 2 2 1 0 0 -0 0 2 1 0 -0 -0 -0 0 0 -0 -0 -0 -0 0 0 0 0 1 1 0 0 0 0 1 1 1 1 1 0 0 -0 -0 -1 -1 -0 -0 -0 -0 -0 -0 -1 -1 -1 -1 -1 -1 -1 -1 -1 -1 -1 -1 -1 -1 -1 -1 -0 -0 -0 -0 -0 -0
6 3 -0 -1 -1 -1 -1 -1 -0 0 2 2 3 3 2 2 2 2 2 2 2 2 2 2 2 2 2 2 2 2 2 2 1 1 1 2 1 1 -0 -1 -1 -0 1 0 0 0 -0 -0 -0 -0 -0 -0 -0 -0 0 0 0 0 0 0 0 0 0 1 1 1 1 1 0 0 -0 -1 -1 -1 -1 -1 -1 -0 -0 -0 -1 -1 -1 -1 -1 -1 -1 -1 -1 -1 -2 -1 -1 -1 -1 -1 -1 -1 -1 -0 -0 -0 -0
6 4 1 -0 -1 -1 -1 -1 -0 0 1 2 2 2 2 2 2 2 2 2 2 2 2 2 2 2 2 2 2 2 2 2 1 1 1 1 1 -0 -1 -0 0 1 1 0 -0 -0 -0 0 0 -0 -0 -0 -0 -0 0 -0 -0 -0 -0 -0 -0 0 0 1 1 1 0 0 -0 -0 -1 -1 -1 -0 -0 -1 -1 -1 -1 -1 -1 -1 -1 -1 -1 -1 -1 -1 -1 -1 -1 -1 -1 -1 -1 -1 -2 -2 -2 -1 -1 -1 -0
5 3 1 0 -1 -1 -1 -1 -0 1 1 2 2 2 2 2 2 2 2 1 1 1 2 2 2 2 2 2 2 2 1 1 1 1 1 1 0 -0 -0 0 0 -0 -1 -1 -1 -1 0 1 1 -0 0 0 -0 -1 -1 -1 -1 -1 -1 -0 -0 0 0 1 1 0 -0 -0 -0 -0 -0 -0 -0 -0 -0 -0 -0 -0 -1 -1 -1 -1 -1 -1 -2 -2 -2 -1 -1 -2 -1 -1 -1 -0 -0 -1 -2 -2 -2 -2 -2 -2 -2
4 3 2 0 -0 -1 -1 -1 -0 1 1 2 2 2 2 2 2 2 1 1 1 1 1 2 2 2 2 2 1 1 1 1 1 1 1 1 1 0 0 -0 -1 -1 -1 -1 -1 -0 0 2 0 -1 1 2 1 -0 -1 -1 -1 -1 -1 -0 0 1 1 1 0 0 -0 -0 -0 -0 0 0 0 0 0 -0 -0 -1 -1 -1 -1 -1 -1 -1 -2 -2 -1 -1 -1 -1 -1 -1 -1 -0 -0 -1 -2 -2 -2 -3 -2 -2 -2
3 3 2 0 -0 -1 -1 -0 0 1 1 2 2 2 2 1 1 1 1 1 1 1 1 1 1 1 1 1 1 0 1 1 1 1 1 1 1 1 -0 -1 -1 -1 -1 -1 -1 -0 0 1 -0 -1 0 3 2 -0 -1 -1 -1 -1 -0 -0 0 1 1 1 0 0 0 0 0 0 0 0 -0 -0 -1 -1 -1 -1 -1 -1 -1 -1 -1 -1 -1 -1 -1 -1 -1 -1 -1 -1 -0 -0 -0 -1 -2 -2 -2 -2 -2 -2 -2
3 3 2 0 -1 -1 -1 -0 0 0 1 2 2 2 1 1 2 2 2 1 1 1 0 0 1 1 1 0 0 0 1 1 1 1 1 1 1 0 -0 -1 -1 -1 -1 -1 -0 -0 -0 -0 -1 -1 -0 2 2 1 -2 -0 -0 -0 -0 -0 0 1 1 1 0 0 0 0 0 0 -0 -0 -1 -1 -2 -2 -1 -1 -1 -1 -1 -1 -1 -1 -1 -1 -1 -1 -0 -0 -0 -0 -0 -0 -1 -1 -1 -2 -2 -2 -2 -2 -2
3 3 2 0 -0 -0 -0 0 0 0 1 1 1 2 2 2 2 1 1 1 0 0 0 0 1 1 0 0 0 1 1 1 1 1 1 1 1 0 0 -1 -1 -1 -1 -1 -1 -0 -0 -1 -1 -1 -1 -0 2 3 -1 -1 -1 -0 -0 -1 -0 0 0 -0 -0 -0 -0 -0 -1 -1 -1 -1 -1 -2 -2 -2 -2 -2 -1 -1 -1 -1 -2 -2 -2 -1 -1 -1 -0 -0 -0 -0 -0 -0 -0 -1 -1 -1 -1 -1 -1 -2 -2
3 3 2 0 0 0 0 0 0 0 1 1 2 2 2 2 1 1 0 0 0 0 0 1 1 1 1 1 1 1 1 1 1 1 1 1 0 0 0 -0 -1 -1 -0 -0 -0 -0 -1 -1 -2 -2 -2 -1 1 3 3 -1 -2 -2 -2 -2 -2 -1 -0 -1 -1 -1 -1 -1 -1 -2 -2 -1 -1 -1 -2 -2 -2 -2 -2 -1 -1 -2 -2 -2 -2 -2 -1 -1 -0 -0 0 0 -0 -0 -0 -0 -1 -1 -1 -2 -2 -2 -1
Height
3141 3141 3140 3140 3140 3140 3142 3143 3143 3143 3143 3143 3142 3143 3142 3143 3142 3142 3142 3142 3143 3144 3144 3145 3145 3145 3146 3146 3147 3147 3148 3148 3149 3149 3149 3150 3149 3149 3149 3149 3149 3149 3149 3149 3150 3150 3150 3150 3150 3150 3150 3150 3150 3150 3150 3151 3151 3151 3151 3151 3152 3152 3151 3151 3151 3151 3151 3151 3150 3150 3151 3151 3151 3151 3151 3151 3151 3151 3151 3151 3151 3151 3151 3151 3151 3151 3151 3151 3151 3151 3151 3151 3151 3151 3150 3150 3150 3150 3150 3150 3150 3150 3149
3141 3140 3140 3140 3139 3140 3141 3142 3143 3143 3142 3142 3142 3142 3142 3142 3142 3142 3142 3143 3142 3142 3143 3144 3145 3145 3145 3146 3146 3147 3147 3148 3148 3149 3149 3149 3149 3149 3149 3149 3149 3149 3149 3149 3149 3150 3150 3150 3150 3150 3150 3150 3150 3150 3150 3151 3151 3151 3151 3151 3152 3152 3151 3151 3151 3151 3150 3150 3150 3150 3150 3150 3150 3151 3151 3151 3151 3151 3151 3151 3151 3151 3151 3151 3151 3151 3151 3151 3151 3151 3151 3151 3151 3150 3150 3150 3150 3150 3150 3150 3150 3149 3149
3140 3140 3140 3140 3139 3139 3140 3141 3142 3142 3142 3141 3142 3142 3142 3142 3142 3142 3142 3143 3143 3143 3144 3145 3145 3145 3145 3146 3146 3146 3147 3147 3148 3148 3149 3149 3149 3149 3148 3148 3148 3148 3148 3148 3148 3149 3150 3150 3150 3150 3150 3150 3150 3150 3150 3150 3151 3151 3151 3151 3152 3152 3151 3151 3151 3151 3150 3150 3150 3150 3150 3150 3150 3150 3150 3150 3151 3151 3151 3151 3151 3151 3151 3151 3151 3151 3151 3151 3151 3151 3151 3151 3150 3150 3150 3150 3150 3150 3150 3149 3149 3149 3149
3140 3140 3139 3140 3139 3138 3139 3140 3141 3142 3141 3141 3141 3142 3141 3141 3141 3141 3141 3143 3143 3143 3144 3144 3144 3145 3145 3145 3146 3146 3147 3147 3148 3148 3148 3148 3148 3148 3148 3148 3148 3148 3148 3148 3148 3148 3149 3150 3150 3150 3150 3150 3150 3150 3150 3150 3151 3151 3151 3151 3151 3151 3151 3151 3151 3150 3150 3150 3150 3150 3150 3150 3150 3150 3150 3150 3150 3150 3150 3151 3151 3151 3151 3151 3151 3151 3151 3151 3151 3151 3151 3150 3150 3150 3150 3150 3150 3150 3149 3149 3149 3149 3148
3140 3139 3139 3139 3138 3138 3138 3139 3140 3141 3141 3141 3141 3141 3141 3141 3141 3141 3141 3142 3143 3143 3143 3143 3143 3144 3145 3145 3145 3146 3146 3147 3147 3148 3148 3148 3148 3148 3148 3148 3148 3148 3148 3148 3148 3148 3149 3149 3150 3150 3150 3150 3150 3150 3150 3150 3151 3151 3151 3151 3151 3151 3151 3151 3151 3150 3150 3150 3150 3150 3150 3150 3150 3150 3150 3150 3150 3150 3150 3150 3150 3150 3150 3150 3150 3150 3150 3150 3150 3150 3150 3150 3150 3150 3150 3150 3150 3149 3149 3149 3149 3148 3148
3139 3139 3139 3138 3138 3137 3137 3137 3139 3140 3140 3140 3141 3141 3141 3141 3141 3141 3141 3142 3142 3143 3142 3142 3142 3143 3144 3145 3145 3145 3146 3146 3147 3147 3148 3148 3148 3148 3148 3148 3148 3148 3148 3148 3148 3148 3149 3149 3149 3150 3150 3150 3150 3150 3150 3150 3150 3151 3151 3151 3151 3151 3151 3151 3150 3150 3150 3150 3150 3150 3150 3150 3150 3150 3150 3150 3150 3150 3150 3150 3150 3150 3150 3150 3150 3150 3150 3150 3150 3150 3150 3150 3150 3150 3150 3150 3149 3149 3149 3148 3148 3148 3147
3138 3138 3138 3138 3138 3137 3137 3136 3137 3139 3140 3140 3140 3141 3141 3141 3141 3141 3141 3141 3141 3142 3142 3141 3141 3142 3144 3144 3145 3145 3145 3146 3146 3147 3147 3147 3147 3148 3148 3148 3148 3148 3148 3148 3148 3148 3149 3149 3150 3150 3150 3150 3150 3150 3150 3150 3150 3150 3151 3151 3151 3151 3151 3151 3150 3150 3150 3149 3149 3149 3149 3149 3149 3150 3150 3150 3150 3150 3150 3150 3150 3150 3150 3150 3150 3150 3150 3150 3150 3150 3150 3150 3150 3150 3149 3149 3149 3149 3148 3148 3148 3147 3147
3137 3137 3137 3137 3137 3137 3137 3136 3137 3137 3139 3139 3140 3140 3140 3140 3140 3140 3140 3141 3141 3140 3140 3141 3141 3142 3144 3144 3144 3145 3145 3146 3146 3146 3147 3147 3147 3147 3148 3148 3148 3148 3148 3148 3148 3148 3149 3149 3149 3150 3150 3150 3150 3150 3150 3150 3150 3150 3150 3150 3151 3151 3151 3150 3150 3150 3149 3149 3149 3149 3149 3149 3149 3149 3149 3149 3149 3150 3150 3150 3150 3150 3150 3150 3150 3150 3150 3150 3150 3150 3150 3150 3149 3149 3149 3149 3149 3148 3148 3148 3147 3147 3146
3137 3137 3137 3137 3137 3137 3137 3136 3136 3137 3138 3138 3139 3139 3139 3140 3140 3140 3140 3140 3140 3140 3140 3140 3141 3141 3143 3143 3144 3144 3145 3145 3146 3146 3146 3146 3147 3147 3148 3148 3148 3148 3148 3148 3148 3148 3149 3149 3149 3149 3149 3149 3150 3150 3150 3150 3150 3150 3150 3150 3150 3150 3150 3150 3150 3150 3149 3149 3149 3149 3149 3149 3149 3149 3149 3149 3149 3149 3149 3149 3150 3150 3150 3150 3150 3150 3150 3150 3150 3149 3149 3149 3149 3149 3149 3148 3148 3148 3147 3147 3147 3146 3146
3136 3136 3136 3136 3136 3136 3136 3136 3136 3137 3137 3138 3138 3138 3138 3139 3139 3139 3139 3139 3139 3139 3140 3140 3141 3141 3142 3143 3143 3144 3145 3145 3145 3145 3146 3146 3146 3147 3147 3148 3148 3147 3147 3147 3147 3148 3148 3149 3149 3149 3149 3149 3149 3149 3149 3149 3150 3150 3150 3150 3150 3150 3150 3150 3150 3149 3149 3149 3148 3148 3148 3148 3148 3148 3148 3148 3149 3149 3149 3149 3149 3149 3149 3149 3149 3149 3149 3149 3149 3149 3149 3149 3148 3148 3148 3148 3148 3147 3147 3146 3146 3146 3145
3135 3135 3135 3135 3135 3135 3135 3135 3135 3136 3137 3138 3138 3138 3138 3138 3138 3139 3139 3139 3139 3139 3140 3140 3140 3141 3142 3142 3143 3144 3144 3145 3145 3145 3145 3146 3146 3147 3147 3147 3147 3147 3147 3147 3147 3148 3148 3148 3149 3149 3149 3149 3149 3149 3149 3149 3149 3149 3149 3150 3150 3150 3150 3150 3149 3149 3149 3148 3148 3148 3148 3148 3148 3148 3148 3148 3148 3148 3148 3148 3148 3149 3149 3149 3149 3149 3149 3148 3148 3148 3148 3148 3148 3148 3147 3147 3147 3147 3146 3146 3145 3145 3145
3134 3134 3134 3135 3135 3135 3135 3135 3135 3135 3136 3137 3137 3138 3138 3138 3138 3138 3138 3138 3139 3139 3139 3139 3140 3140 3141 3142 3143 3143 3144 3144 3145 3145 3145 3145 3146 3146 3147 3147 3147 3147 3147 3147 3147 3147 3148 3148 3148 3149 3149 3149 3149 3149 3149 3149 3149 3149 3149 3149 3149 3149 3149 3149 3149 3149 3148 3148 3148 3147 3147 3147 3147 3147 3147 3147 3147 3147 3148 3148 3148 3148 3148 3148 3148 3148 3148 3148 3148 3148 3147 3147 3147 3147 3147 3146 3146 3146 3145 3145 3145 3145 3144
3133 3133 3133 3134 3134 3134 3134 3134 3134 3134 3135 3136 3137 3137 3137 3137 3137 3137 3137 3137 3138 3138 3139 3139 3140 3140 3141 3141 3142 3143 3143 3144 3144 3145 3145 3145 3145 3146 3146 3147 3147 3147 3147 3146 3147 3147 3147 3147 3148 3148 3148 3148 3148 3148 3148 3148 3148 3148 3148 3148 3149 3149 3149 3149 3149 3148 3148 3147 3147 3147 3147 3147 3147 3147 3147 3147 3147 3147 3147 3147 3147 3147 3147 3147 3147 3147 3147 3147 3147 3147 3147 3146 3146 3146 3146 3146 3145 3145 3145 3145 3144 3144 3143
3132 3132 3132 3133 3133 3133 3133 3133 3133 3134 3134 3135 3136 3136 3137 3137 3137 3136 3136 3136 3137 3137 3138 3138 3139 3140 3140 3141 3141 3142 3142 3143 3144 3144 3144 3144 3145 3145 3146 3146 3146 3146 3146 3146 3146 3146 3147 3147 3147 3147 3147 3147 3148 3148 3148 3148 3148 3148 3148 3148 3148 3148 3148 3148 3148 3148 3147 3147 3147 3146 3146 3146 3146 3146 3146 3146 3146 3146 3146 3146 3146 3146 3146 3146 3146 3146 3146 3146 3146 3146 3146 3146 3145 3145 3145 3145 3145 3144 3144 3144 3143 3143 3142
3131 3131 3131 3132 3132 3132 3132 3132 3132 3133 3133 3134 3135 3136 3136 3136 3136 3136 3136 3136 3136 3136 3137 3138 3138 3139 3140 3140 3141 3141 3142 3142 3143 3143 3144 3144 3144 3145 3145 3146 3146 3146 3146 3146 3146 3146 3146 3146 3147 3147 3147 3147 3147 3147 3147 3147 3147 3147 3147 3147 3148 3148 3148 3148 3147 3147 3147 3146 3146 3146 3146 3145 3145 3145 3145 3145 3145 3145 3145 3145 3145 3145 3145 3145 3145 3145 3145 3145 3145 3145 3145 3145 3145 3144 3144 3144 3144 3143 3143 3143 3142 3142 3141
3130 3131 3131 3131 3131 3131 3131 3131 3131 3132 3132 3133 3134 3135 3135 3135 3135 3135 3135 3135 3135 3136 3136 3137 3138 3138 3139 3140 3140 3140 3141 3142 3142 3143 3143 3143 3144 3145 3145 3145 3145 3145 3145 3145 3145 3145 3145 3146 3146 3146 3146 3146 3146 3147 3147 3147 3147 3147 3147 3147 3147 3147 3147 3147 3147 3147 3146 3146 3146 3145 3145 3145 3145 3145 3145 3145 3145 3145 3145 3145 3145 3145 3145 3145 3145 3145 3144 3144 3144 3144 3144 3144 3144 3143 3143 3143 3143 3142 3142 3141 3141 3141 3140
3130 3130 3130 3130 3130 3130 3130 3130 3131 3131 3131 3132 3133 3133 3134 3134 3135 3135 3135 3135 3135 3135 3136 3136 3137 3137 3138 3139 3139 3140 3140 3141 3142 3142 3143 3143 3143 3144 3144 3145 3145 3145 3145 3145 3145 3145 3145 3145 3145 3145 3146 3146 3146 3146 3146 3146 3146 3146 3146 3146 3146 3146 3146 3146 3146 3146 3146 3145 3145 3145 3145 3145 3144 3144 3144 3144 3144 3144 3144 3144 3144 3144 3144 3144 3144 3143 3143 3143 3143 3143 3143 3143 3143 3142 3142 3142 3141 3141 3141 3140 3140 3140 3139
3128 3129 3129 3129 3129 3130 3130 3130 3130 3130 3130 3131 3132 3132 3133 3133 3134 3134 3134 3134 3135 3135 3135 3136 3136 3137 3137 3138 3139 3139 3140 3140 3141 3141 3142 3142 3143 3143 3144 3144 3144 3144 3144 3144 3144 3144 3144 3145 3145 3145 3145 3145 3145 3145 3146 3146 3146 3146 3146 3145 3146 3146 3146 3146 3146 3145 3145 3145 3145 3145 3144 3144 3144 3144 3144 3143 3143 3143 3143 3143 3143 3143 3143 3143 3142 3142 3142 3142 3142 3142 3142 3142 3141 3141 3141 3140 3140 3140 3140 3139 3139 3139 3138
3127 3127 3128 3128 3128 3129 3129 3129 3129 3129 3130 3130 3130 3131 3132 3132 3132 3133 3133 3134 3134 3134 3135 3135 3135 3136 3137 3137 3138 3139 3139 3140 3140 3141 3141 3142 3142 3143 3143 3143 3144 3144 3144 3144 3144 3144 3144 3144 3144 3144 3145 3145 3145 3145 3145 3145 3145 3145 3145 3145 3145 3145 3145 3145 3145 3145 3145 3145 3145 3144 3144 3144 3144 3143 3143 3143 3143 3143 3142 3142 3142 3142 3142 3142 3142 3141 3141 3141 3141 3141 3141 3140 3140 3140 3140 3140 3139 3139 3138 3138 3138 3137 3137
3125 3126 3126 3127 3127 3127 3128 3128 3128 3129 3129 3129 3130 3130 3130 3131 3131 3132 3132 3133 3133 3134 3134 3135 3135 3136 3136 3137 3137 3138 3138 3139 3140 3140 3141 3141 3141 3142 3142 3143 3143 3143 3143 3143 3143 3143 3143 3143 3144 3144 3144 3144 3144 3145 3145 3145 3145 3145 3145 3145 3145 3145 3145 3145 3145 3145 3144 3144 3144 3144 3144 3143 3143 3143 3143 3142 3142 3142 3142 3142 3141 3141 3141 3141 3141 3140 3140 3140 3140 3140 3140 3140 3139 3139 3139 3138 3138 3138 3137 3137 3136 3136 3136
3124 3125 3125 3125 3126 3126 3127 3127 3127 3128 3128 3128 3129 3129 3130 3130 3130 3130 3131 3131 3132 3133 3133 3134 3135 3135 3135 3136 3136 3137 3137 3138 3139 3139 3140 3140 3141 3141 3141 3142 3142 3142 3142 3142 3142 3142 3142 3143 3143 3143 3144 3144 3144 3144 3144 3144 3144 3144 3144 3144 3144 3144 3144 3144 3144 3144 3144 3144 3143 3143 3143 3143 3143 3143 3142 3142 3142 3142 3141 3141 3141 3141 3140 3140 3140 3140 3140 3140 3140 3139 3139 3139 3139 3138 3138 3137 3137 3137 3136 3136 3135 3135 3135
3123 3123 3124 3124 3125 3125 3125 3126 3126 3127 3127 3128 3128 3128 3129 3129 3129 3130 3130 3130 3131 3132 3133 3133 3134 3134 3135 3135 3135 3136 3136 3137 3138 3139 3139 3140 3140 3140 3141 3141 3141 3141 3142 3142 3142 3142 3142 3142 3142 3143 3143 3143 3143 3144 3144 3144 3144 3144 3144 3144 3144 3144 3144 3144 3144 3143 3143 3143 3143 3143 3143 3143 3142 3142 3142 3142 3141 3141 3141 3141 3140 3140 3140 3140 3140 3140 3139 3139 3139 3139 3138 3138 3138 3137 3137 3136 3136 3135 3135 3135 3134 3134 3133
3122 3122 3123 3123 3124 3124 3125 3125 3125 3126 3126 3127 3127 3127 3128 3128 3129 3129 3130 3130 3130 3131 3132 3133 3133 3133 3134 3134 3135 3135 3136 3136 3137 3138 3138 3139 3139 3140 3140 3140 3140 3141 3141 3141 3141 3141 3141 3142 3142 3142 3142 3143 3143 3143 3143 3143 3143 3143 3143 3143 3143 3143 3143 3143 3143 3143 3143 3142 3142 3142 3142 3142 3142 3142 3142 3141 3141 3141 3140 3140 3140 3140 3140 3140 3139 3139 3139 3138 3138 3138 3138 3137 3137 3136 3136 3135 3135 3135 3134 3134 3133 3132 3132
3120 3121 3121 3122 3122 3123 3123 3124 3124 3125 3125 3125 3126 3126 3126 3128 3129 3129 3129 3129 3130 3130 3131 3132 3132 3133 3133 3134 3134 3135 3135 3135 3136 3137 3137 3138 3138 3139 3139 3140 3140 3140 3140 3140 3141 3141 3141 3141 3141 3142 3142 3142 3142 3142 3143 3143 3143 3143 3143 3143 3143 3143 3142 3142 3142 3142 3142 3142 3142 3141 3141 3141 3141 3141 3141 3141 3140 3140 3140 3140 3140 3139 3139 3139 3139 3138 3138 3138 3137 3137 3137 3136 3136 3135 3135 3135 3134 3133 3133 3132 3131 3131 3130
3119 3120 3120 3120 3121 3122 3122 3123 3123 3124 3124 3125 3125 3126 3126 3127 3128 3129 3128 3129 3129 3130 3130 3131 3131 3132 3132 3133 3133 3134 3134 3135 3135 3136 3136 3137 3137 3138 3139 3139 3139 3140 3140 3140 3140 3140 3140 3141 3141 3141 3141 3142 3142 3142 3142 3142 3142 3142 3142 3142 3142 3142 3142 3142 3142 3142 3141 3141 3141 3141 3141 3141 3140 3140 3140 3140 3140 3140 3139 3139 3139 3139 3138 3138 3138 3137 3137 3137 3136 3136 3135 3135 3135 3134 3134 3133 3133 3132 3131 3131 3130 3130 3129
3118 3119 3119 3120 3120 3120 3121 3122 3122 3123 3123 3124 3124 3124 3125 3126 3127 3128 3128 3128 3128 3129 3130 3130 3130 3131 3131 3132 3133 3133 3134 3134 3134 3135 3135 3136 3136 3137 3138 3138 3139 3139 3140 3140 3140 3140 3140 3140 3140 3141 3141 3141 3141 3141 3142 3142 3142 3142 3142 3142 3141 3141 3141 3141 3141 3141 3141 3141 3140 3140 3140 3140 3140 3140 3140 3139 3139 3139 3139 3139 3138 3138 3138 3137 3137 3136 3136 3136 3135 3135 3135 3134 3134 3133 3133 3132 3131 3131 3130 3129 3129 3128 3127
3117 3117 3118 3118 3119 3119 3120 3120 3121 3121 3122 3122 3123 3123 3124 3125 3126 3127 3127 3127 3128 3128 3129 3129 3130 3130 3131 3131 3132 3132 3133 3133 3134 3134 3135 3135 3135 3136 3137 3137 3138 3138 3139 3139 3139 3140 3140 3140 3140 3140 3140 3140 3141 3141 3141 3141 3141 3141 3141 3141 3141 3141 3140 3140 3140 3140 3140 3140 3140 3140 3140 3139 3139 3139 3139 3139 3138 3138 3138 3137 3137 3137 3136 3136 3136 3135 3135 3135 3134 3134 3133 3133 3132 3132 3131 3130 3130 3129 3129 3128 3127 3126 3126
3116 3116 3117 3117 3118 3118 3119 3120 3120 3120 3121 3121 3122 3122 3123 3124 3125 3126 3127 3127 3127 3127 3128 3128 3129 3130 3130 3131 3131 3132 3132 3133 3133 3133 3134 3134 3135 3135 3136 3136 3137 3137 3138 3138 3139 3139 3139 3139 3139 3140 3140 3140 3140 3140 3140 3141 3141 3141 3140 3140 3140 3140 3140 3140 3140 3140 3139 3139 3139 3139 3139 3139 3138 3138 3138 3138 3137 3137 3137 3137 3136 3136 3135 3135 3135 3134 3134 3133 3133 3132 3132 3131 3131 3130 3130 3129 3129 3128 3127 3126 3126 3125 3124
3115 3115 3115 3116 3116 3117 3118 3119 3119 3120 3120 3120 3121 3121 3122 3123 3124 3125 3125 3126 3127 3127 3127 3127 3128 3129 3130 3130 3131 3131 3132 3132 3132 3133 3133 3134 3134 3135 3135 3135 3136 3136 3137 3137 3138 3138 3138 3138 3139 3139 3139 3139 3140 3140 3140 3140 3140 3140 3140 3140 3140 3140 3139 3139 3139 3139 3139 3138 3138 3138 3138 3138 3138 3137 3137 3137 3137 3136 3136 3135 3135 3135 3135 3134 3134 3133 3133 3132 3131 3131 3130 3130 3129 3129 3128 3128 3127 3126 3125 3125 3124 3124 3123
3113 3114 3114 3115 3115 3116 3117 3118 3118 3119 3119 3119 3120 3120 3120 3121 3122 3123 3124 3125 3126 3127 3127 3127 3128 3128 3129 3130 3130 3131 3131 3131 3132 3132 3132 3133 3133 3134 3134 3135 3135 3135 3136 3136 3137 3137 3137 3137 3138 3138 3138 3138 3139 3139 3139 3139 3139 3139 3139 3139 3139 3139 3139 3138 3138 3138 3138 3138 3137 3137 3137 3137 3137 3136 3136 3136 3135 3135 3135 3135 3134 3134 3133 3133 3132 3132 3131 3131 3130 3130 3129 3129 3128 3127 3127 3126 3125 3125 3124 3124 3123 3122 3121
3112 3113 3113 3114 3114 3115 3115 3116 3117 3118 3119 3119 3119 3119 3120 3120 3121 3122 3123 3124 3124 3125 3126 3126 3127 3127 3128 3129 3130 3130 3130 3131 3131 3131 3132 3132 3133 3133 3134 3134 3134 3135 3135 3135 3136 3136 3136 3136 3137 3137 3137 3137 3138 3138 3138 3138 3138 3138 3138 3138 3138 3138 3138 3138 3137 3137 3137 3137 3137 3136 3136 3136 3136 3135 3135 3135 3134 3134 3134 3134 3133 3133 3132 3132 3131 3131 3130 3130 3129 3128 3128 3128 3127 3126 3126 3125 3124 3124 3123 3122 3121 3121 3120
3111 3111 3112 3113 3113 3114 3114 3115 3116 3117 3118 3118 3119 3119 3119 3120 3121 3121 3122 3123 3124 3124 3125 3125 3126 3126 3127 3128 3129 3129 3130 3130 3130 3131 3131 3132 3132 3133 3133 3133 3134 3134 3134 3135 3135 3135 3135 3135 3136 3136 3136 3136 3137 3137 3137 3137 3137 3137 3138 3138 3137 3137 3137 3137 3137 3136 3136 3136 3136 3135 3135 3135 3135 3135 3134 3134 3133 3133 3133 3132 3132 3131 3131 3130 3130 3130 3129 3128 3128 3127 3127 3126 3126 3125 3125 3124 3123 3122 3122 3121 3120 3120 3119
3110 3110 3111 3111 3112 3112 3113 3114 3115 3115 3116 3117 3118 3118 3118 3119 3120 3120 3121 3122 3122 3123 3124 3124 3125 3125 3126 3127 3128 3128 3129 3129 3130 3130 3131 3131 3132 3132 3132 3133 3133 3133 3134 3134 3134 3134 3135 3135 3135 3135 3135 3135 3136 3136 3136 3136 3136 3136 3137 3137 3137 3136 3136 3136 3136 3135 3135 3135 3135 3135 3134 3134 3134 3133 3133 3133 3132 3132 3132 3131 3131 3130 3130 3130 3129 3129 3128 3127 3127 3126 3125 3125 3124 3124 3123 3123 3122 3121 3120 3120 3119 3118 3117
3108 3109 3110 3110 3111 3111 3112 3113 3113 3114 3115 3116 3117 3117 3118 3118 3119 3119 3120 3120 3121 3122 3122 3123 3124 3125 3125 3126 3127 3127 3128 3129 3129 3130 3130 3131 3131 3131 3132 3132 3132 3133 3133 3133 3133 3133 3134 3134 3134 3134 3134 3135 3135 3135 3135 3135 3135 3135 3136 3136 3136 3136 3135 3135 3135 3135 3135 3134 3134 3134 3133 3133 3132 3132 3132 3131 3131 3131 3130 3130 3130 3130 3129 3128 3128 3127 3127 3126 3125 3125 3124 3123 3123 3122 3122 3121 3120 3120 3119 3118 3118 3117 3116
3107 3107 3108 3109 3110 3110 3111 3111 3112 3113 3113 3114 3115 3116 3117 3117 3117 3118 3119 3120 3120 3121 3122 3122 3123 3124 3125 3125 3126 3127 3127 3128 3129 3129 3130 3130 3130 3131 3131 3131 3132 3132 3132 3132 3132 3133 3133 3133 3133 3133 3133 3133 3134 3134 3134 3134 3134 3135 3135 3135 3135 3135 3135 3134 3134 3134 3134 3133 3133 3132 3132 3132 3131 3131 3131 3130 3130 3130 3129 3129 3129 3128 3128 3127 3127 3126 3125 3125 3124 3123 3123 3122 3121 3121 3120 3120 3119 3118 3117 3117 3116 3115 3114
3105 3106 3107 3107 3108 3109 3110 3110 3110 3111 3112 3113 3114 3115 3115 3116 3116 3117 3118 3119 3119 3120 3121 3122 3122 3123 3124 3125 3125 3126 3127 3127 3128 3129 3129 3130 3130 3130 3130 3131 3131 3131 3131 3131 3131 3132 3132 3132 3132 3132 3132 3132 3133 3133 3133 3133 3133 3134 3134 3134 3134 3134 3134 3133 3133 3133 3132 3132 3132 3131 3131 3130 3130 3130 3130 3129 3129 3128 3128 3128 3127 3127 3126 3126 3125 3125 3124 3123 3123 3122 3121 3121 3120 3119 3118 3118 3117 3117 3116 3115 3114 3114 3113
3104 3105 3105 3106 3107 3108 3108 3109 3109 3110 3110 3111 3112 3113 3114 3115 3115 3116 3117 3118 3118 3119 3120 3121 3121 3122 3123 3124 3125 3125 3126 3126 3127 3128 3128 3129 3129 3130 3130 3130 3130 3130 3130 3130 3131 3131 3131 3131 3131 3131 3131 3131 3131 3132 3132 3132 3132 3133 3133 3133 3133 3133 3133 3132 3132 3132 3131 3131 3131 3130 3130 3129 3129 3129 3128 3128 3127 3127 3127 3126 3126 3125 3125 3125 3124 3124 3123 3122 3121 3121 3120 3119 3118 3117 3117 3116 3115 3114 3114 3113 3112 3111 3110
3103 3103 3104 3105 3105 3106 3107 3107 3108 3109 3109 3110 3111 3112 3113 3114 3115 3115 3116 3117 3117 3118 3119 3120 3121 3121 3122 3123 3124 3124 3125 3126 3126 3127 3128 3128 3128 3129 3129 3129 3129 3130 3130 3130 3130 3130 3130 3130 3130 3130 3130 3130 3130 3131 3131 3131 3131 3132 3132 3132 3132 3132 3132 3131 3131 3131 3130 3130 3130 3129 3129 3128 3128 3127 3127 3126 3126 3126 3125 3125 3125 3124 3124 3123 3123 3122 3121 3121 3120 3120 3119 3118 3117 3116 3115 3115 3113 3112 3112 3111 3110 3109 3108
3101 3102 3103 3103 3104 3105 3106 3106 3106 3107 3108 3109 3110 3110 3111 3112 3113 3114 3115 3116 3116 3117 3118 3119 3120 3120 3121 3122 3123 3124 3124 3125 3125 3126 3127 3127 3128 3128 3128 3128 3128 3129 3129 3129 3129 3129 3129 3129 3129 3129 3129 3130 3130 3130 3130 3130 3130 3131 3131 3131 3131 3131 3130 3130 3130 3130 3129 3129 3129 3128 3128 3127 3127 3126 3126 3125 3125 3125 3124 3124 3123 3123 3122 3122 3121 3121 3120 3119 3119 3118 3117 3116 3115 3115 3114 3113 3112 3111 3110 3109 3108 3107 3106
3100 3101 3101 3102 3103 3104 3105 3105 3105 3106 3107 3107 3108 3109 3110 3111 3112 3113 3114 3115 3115 3116 3117 3118 3119 3120 3120 3121 3122 3122 3123 3124 3125 3125 3125 3126 3126 3127 3127 3127 3127 3128 3128 3128 3128 3128 3128 3128 3128 3128 3128 3129 3129 3129 3129 3129 3130 3130 3130 3130 3130 3129 3129 3129 3129 3129 3128 3128 3127 3127 3126 3126 3125 3125 3125 3124 3124 3123 3123 3122 3122 3121 3121 3120 3120 3119 3119 3118 3117 3116 3115 3115 3114 3113 3112 3111 3110 3110 3109 3108 3106 3105 3105
3099 3099 3100 3101 3101 3102 3103 3104 3104 3105 3105 3106 3107 3108 3109 3110 3111 3112 3113 3113 3114 3115 3116 3117 3118 3118 3119 3120 3121 3121 3122 3123 3123 3124 3125 3125 3125 3125 3126 3126 3126 3127 3127 3127 3127 3127 3127 3127 3127 3127 3127 3128 3128 3128 3128 3128 3128 3128 3128 3128 3128 3128 3128 3128 3128 3127 3127 3127 3126 3126 3125 3125 3125 3124 3124 3123 3122 3122 3121 3121 3120 3120 3120 3119 3118 3118 3117 3116 3115 3115 3114 3113 3112 3112 3111 3110 3109 3108 3107 3106 3105 3104 3103
3097 3098 3098 3099 3100 3100 3101 3102 3103 3103 3104 3105 3105 3106 3107 3108 3110 3110 3111 3112 3113 3114 3115 3115 3117 3117 3118 3119 3120 3120 3121 3122 3122 3123 3123 3124 3124 3125 3125 3125 3125 3125 3126 3126 3126 3126 3126 3126 3126 3126 3126 3127 3127 3127 3127 3127 3127 3127 3127 3127 3127 3127 3127 3127 3126 3126 3126 3125 3125 3125 3124 3124 3124 3123 3122 3122 3121 3121 3120 3120 3119 3119 3118 3117 3117 3116 3115 3115 3114 3113 3112 3112 3111 3110 3109 3108 3107 3106 3105 3105 3104 3103 3101
3096 3096 3097 3097 3098 3099 3100 3101 3101 3102 3102 3103 3104 3105 3106 3107 3108 3109 3110 3111 3112 3113 3114 3115 3115 3116 3117 3118 3119 3119 3120 3120 3121 3122 3122 3122 3123 3123 3124 3124 3124 3125 3125 3125 3125 3125 3125 3125 3125 3125 3125 3125 3126 3126 3126 3126 3125 3125 3125 3125 3125 3125 3125 3125 3125 3125 3125 3124 3124 3124 3123 3123 3122 3122 3121 3120 3120 3120 3119 3118 3118 3117 3116 3116 3115 3115 3114 3113 3113 3112 3111 3110 3109 3109 3108 3107 3106 3105 3104 3103 3102 3101 3100
3094 3095 3095 3096 3096 3097 3098 3099 3100 3100 3101 3102 3103 3104 3105 3106 3107 3108 3109 3110 3110 3112 3113 3114 3115 3115 3116 3117 3118 3118 3119 3120 3120 3120 3121 3121 3122 3122 3123 3123 3123 3124 3124 3124 3124 3124 3124 3124 3125 3125 3125 3125 3125 3125 3125 3125 3124 3124 3124 3124 3124 3124 3124 3124 3124 3124 3123 3123 3123 3122 3122 3122 3121 3120 3120 3120 3119 3118 3118 3117 3116 3116 3115 3115 3114 3113 3112 3112 3111 3110 3110 3109 3108 3107 3106 3105 3104 3103 3102 3101 3100 3099 3098
3092 3093 3094 3094 3095 3096 3097 3098 3098 3099 3100 3100 3101 3102 3103 3105 3105 3106 3107 3109 3110 3111 3112 3113 3114 3115 3115 3116 3117 3117 3118 3118 3119 3119 3120 3120 3120 3121 3122 3122 3122 3123 3123 3123 3123 3123 3123 3123 3123 3123 3124 3124 3124 3124 3123 3123 3123 3123 3123 3123 3123 3123 3123 3123 3123 3122 3122 3122 3121 3121 3121 3120 3120 3119 3119 3118 3118 3117 3116 3116 3115 3114 3114 3113 3112 3112 3111 3110 3110 3109 3108 3107 3106 3105 3105 3104 3103 3102 3101 3100 3099 3098 3097
3091 3091 3092 3093 3093 3094 3095 3096 3097 3098 3098 3099 3100 3101 3102 3103 3104 3105 3106 3108 3109 3110 3111 3112 3113 3113 3114 3115 3115 3116 3116 3117 3117 3118 3119 3119 3120 3120 3121 3121 3122 3122 3122 3122 3122 3122 3122 3122 3122 3123 3123 3123 3123 3122 3122 3122 3122 3122 3122 3122 3122 3122 3122 3122 3121 3121 3121 3120 3120 3120 3120 3119 3119 3118 3117 3117 3116 3115 3115 3114 3114 3113 3112 3112 3111 3110 3110 3109 3108 3107 3107 3106 3105 3104 3103 3102 3101 3100 3099 3098 3097 3096 3095
3089 3090 3090 3091 3092 3092 3093 3094 3095 3096 3097 3098 3099 3100 3101 3102 3103 3105 3105 3106 3108 3109 3110 3110 3111 3112 3113 3114 3114 3115 3115 3116 3116 3117 3118 3118 3119 3120 3120 3120 3121 3121 3121 3121 3121 3121 3121 3121 3122 3122 3122 3122 3121 3121 3121 3121 3121 3121 3121 3121 3121 3121 3121 3121 3120 3120 3120 3120 3119 3119 3119 3118 3117 3117 3116 3115 3115 3114 3114 3113 3112 3112 3111 3110 3110 3109 3108 3107 3107 3106 3105 3105 3104 3103 3102 3100 3100 3099 3098 3096 3095 3095 3094
3088 3089 3089 3089 3090 3091 3092 3093 3094 3095 3096 3097 3098 3099 3100 3101 3102 3103 3104 3105 3106 3107 3108 3109 3110 3110 3111 3112 3113 3114 3114 3115 3115 3116 3116 3117 3118 3119 3119 3120 3120 3120 3120 3120 3120 3120 3120 3121 3121 3121 3121 3121 3120 3120 3120 3120 3120 3120 3120 3120 3120 3120 3120 3119 3119 3119 3118 3118 3118 3118 3117 3116 3116 3115 3115 3114 3114 3113 3112 3112 3111 3110 3110 3109 3108 3107 3107 3106 3105 3105 3104 3103 3102 3101 3100 3099 3098 3097 3096 3095 3094 3093 3092
3087 3087 3087 3088 3088 3089 3090 3091 3092 3094 3095 3095 3096 3097 3099 3100 3101 3102 3103 3104 3105 3105 3106 3107 3108 3109 3110 3111 3112 3113 3113 3114 3114 3115 3115 3116 3117 3118 3118 3118 3119 3119 3119 3119 3119 3119 3120 3120 3120 3120 3120 3120 3119 3119 3119 3119 3119 3119 3119 3119 3119 3119 3118 3118 3118 3117 3117 3117 3117 3116 3115 3115 3115 3114 3114 3113 3112 3112 3111 3110 3110 3109 3108 3107 3107 3106 3105 3105 3104 3103 3102 3101 3100 3100 3099 3097 3096 3095 3094 3093 3092 3091 3090
3086 3086 3086 3086 3087 3088 3089 3090 3091 3092 3093 3094 3095 3096 3097 3098 3099 3100 3101 3102 3103 3104 3105 3106 3107 3108 3109 3110 3110 3111 3112 3113 3113 3114 3115 3115 3116 3117 3117 3117 3117 3118 3118 3118 3118 3119 3119 3119 3119 3119 3119 3119 3118 3118 3118 3118 3118 3118 3118 3117 3117 3117 3117 3117 3116 3116 3116 3115 3115 3115 3114 3114 3113 3113 3112 3111 3111 3110 3110 3109 3108 3107 3107 3106 3105 3105 3104 3103 3102 3101 3100 3100 3099 3098 3097 3096 3095 3094 3093 3091 3090 3089 3088
3084 3085 3085 3085 3086 3086 3087 3088 3089 3090 3092 3093 3094 3095 3095 3096 3098 3099 3100 3101 3102 3103 3104 3105 3106 3107 3108 3109 3110 3110 3111 3111 3112 3113 3114 3115 3115 3116 3116 3116 3116 3116 3117 3117 3117 3117 3118 3118 3118 3118 3118 3117 3117 3117 3117 3116 3116 3116 3116 3116 3116 3116 3116 3115 3115 3115 3115 3114 3114 3113 3113 3112 3112 3111 3110 3110 3110 3109 3108 3107 3107 3106 3105 3105 3104 3103 3102 3101 3101 3100 3099 3098 3097 3096 3095 3094 3093 3092 3090 3090 3088 3087 3086
3083 3084 3084 3084 3084 3085 3085 3086 3088 3089 3090 3091 3092 3093 3094 3095 3096 3097 3099 3100 3101 3102 3103 3104 3105 3106 3107 3108 3108 3109 3110 3110 3111 3112 3113 3114 3114 3115 3115 3115 3115 3115 3116 3116 3116 3116 3117 3117 3117 3117 3116 3116 3116 3116 3115 3115 3115 3115 3115 3115 3115 3115 3115 3114 3114 3114 3113 3113 3112 3112 3111 3111 3110 3110 3109 3109 3108 3107 3107 3106 3105 3105 3104 3103 3102 3102 3101 3100 3099 3098 3097 3096 3095 3094 3093 3092 3091 3090 3089 3087 3086 3085 3084
3081 3082 3082 3083 3083 3084 3084 3085 3086 3088 3089 3090 3091 3092 3093 3094 3095 3096 3097 3098 3100 3100 3102 3103 3104 3105 3105 3106 3107 3108 3109 3110 3110 3111 3112 3112 3113 3113 3113 3114 3114 3115 3115 3115 3115 3115 3115 3115 3115 3115 3115 3115 3115 3115 3115 3114 3114 3114 3114 3114 3114 3114 3113 3113 3113 3112 3112 3111 3111 3110 3110 3110 3109 3108 3108 3107 3107 3106 3105 3105 3104 3103 3102 3101 3101 3100 3099 3098 3097 3096 3095 3094 3093 3092 3091 3090 3089 3088 3086 3085 3084 3083 3081
3080 3081 3081 3081 3082 3082 3083 3084 3085 3086 3087 3089 3090 3091 3092 3093 3094 3095 3096 3097 3098 3099 3100 3101 3102 3103 3105 3105 3106 3107 3108 3108 3109 3110 3110 3111 3111 3112 3112 3112 3113 3113 3114 3114 3114 3114 3114 3114 3114 3114 3114 3114 3114 3114 3113 3113 3113 3113 3113 3113 3113 3112 3112 3112 3111 3111 3111 3110 3110 3109 3109 3108 3108 3107 3106 3106 3105 3105 3104 3103 3102 3101 3101 3100 3099 3098 3097 3096 3095 3095 3093 3092 3091 3090 3089 3088 3086 3085 3084 3083 3082 3080 3079
3078 3080 3080 3080 3080 3081 3082 3083 3084 3085 3086 3087 3088 3090 3090 3091 3092 3094 3095 3096 3097 3098 3099 3100 3101 3102 3103 3104 3105 3105 3106 3107 3107 3108 3109 3110 3110 3110 3111 3111 3112 3112 3112 3113 3113 3113 3113 3113 3113 3113 3113 3112 3112 3112 3112 3112 3112 3111 3111 3111 3111 3111 3111 3111 3110 3110 3110 3109 3109 3108 3108 3107 3106 3106 3105 3105 3104 3103 3102 3102 3101 3100 3099 3098 3097 3096 3095 3095 3094 3093 3091 3090 3089 3088 3087 3085 3084 3083 3082 3080 3079 3078 3077
3077 3078 3079 3079 3080 3080 3080 3081 3082 3084 3085 3086 3087 3088 3089 3090 3091 3092 3093 3095 3095 3097 3098 3099 3100 3101 3102 3103 3104 3104 3105 3105 3106 3107 3107 3108 3109 3109 3110 3110 3110 3111 3111 3111 3112 3112 3112 3112 3112 3112 3112 3111 3111 3111 3111 3110 3110 3110 3110 3110 3110 3110 3110 3110 3109 3109 3109 3108 3107 3107 3106 3106 3105 3105 3104 3103 3102 3102 3101 3100 3099 3098 3097 3096 3095 3095 3094 3093 3092 3090 3090 3089 3087 3086 3085 3084 3082 3081 3079 3078 3077 3075 3074
3075 3076 3077 3078 3078 3079 3079 3080 3081 3082 3084 3085 3086 3087 3088 3089 3090 3091 3092 3093 3094 3095 3097 3098 3099 3100 3100 3101 3102 3103 3103 3104 3105 3105 3106 3107 3107 3108 3108 3109 3109 3109 3110 3110 3110 3110 3110 3110 3111 3111 3111 3110 3110 3110 3110 3110 3109 3109 3109 3109 3109 3109 3109 3109 3108 3108 3107 3107 3106 3105 3105 3104 3104 3103 3103 3102 3101 3100 3100 3099 3098 3097 3096 3095 3094 3093 3092 3091 3090 3089 3088 3086 3085 3084 3083 3081 3080 3078 3077 3075 3074 3073 3071
3074 3075 3076 3076 3077 3077 3078 3079 3080 3081 3082 3083 3084 3085 3086 3087 3088 3090 3091 3092 3093 3094 3095 3096 3097 3098 3099 3100 3100 3101 3102 3103 3103 3104 3105 3105 3106 3106 3107 3107 3108 3108 3108 3108 3109 3109 3109 3109 3110 3110 3110 3110 3109 3109 3109 3109 3108 3108 3108 3108 3108 3108 3108 3108 3107 3107 3106 3106 3105 3105 3104 3103 3102 3102 3101 3100 3100 3099 3098 3097 3096 3095 3094 3093 3092 3091 3090 3089 3088 3087 3085 3085 3083 3082 3081 3079 3078 3076 3075 3073 3072 3070 3069
3073 3074 3075 3075 3075 3076 3077 3078 3079 3080 3081 3082 3083 3084 3085 3086 3087 3088 3090 3091 3092 3093 3094 3095 3096 3097 3098 3098 3099 3100 3101 3101 3102 3103 3103 3104 3105 3105 3106 3106 3106 3107 3107 3107 3107 3108 3108 3108 3108 3108 3108 3109 3109 3108 3107 3108 3108 3107 3107 3107 3107 3107 3107 3106 3106 3105 3105 3105 3104 3103 3103 3102 3101 3100 3100 3099 3098 3097 3096 3095 3095 3093 3092 3091 3090 3089 3088 3087 3086 3085 3084 3082 3081 3080 3078 3077 3075 3074 3072 3071 3070 3068 3067
3072 3073 3073 3074 3074 3075 3076 3077 3078 3078 3079 3080 3081 3083 3084 3085 3086 3087 3088 3089 3090 3091 3093 3094 3095 3096 3096 3097 3098 3099 3100 3100 3101 3101 3102 3103 3104 3104 3105 3105 3105 3105 3106 3106 3106 3106 3106 3106 3106 3106 3107 3107 3108 3108 3106 3106 3106 3106 3106 3106 3106 3106 3105 3105 3105 3104 3104 3103 3103 3102 3102 3101 3100 3099 3098 3097 3097 3096 3095 3094 3093 3092 3091 3090 3089 3087 3086 3085 3084 3083 3081 3080 3079 3077 3076 3075 3073 3072 3070 3069 3067 3066 3065
3070 3071 3072 3072 3073 3074 3075 3076 3076 3077 3078 3079 3080 3082 3083 3084 3085 3086 3087 3088 3089 3090 3091 3093 3094 3095 3095 3096 3097 3098 3098 3099 3099 3100 3101 3102 3102 3103 3103 3104 3104 3104 3105 3105 3105 3105 3105 3105 3105 3105 3105 3106 3106 3107 3106 3105 3105 3105 3105 3105 3105 3105 3105 3104 3103 3103 3102 3102 3101 3101 3100 3100 3099 3098 3097 3096 3095 3094 3093 3092 3091 3090 3089 3088 3086 3085 3084 3083 3082 3081 3080 3078 3077 3075 3074 3072 3071 3070 3068 3067 3065 3064 3063